FW9748 Weather Reports


Display with metric or nautical units.
time (UTC)temp
F
wind
direction
speed
MPH
gust
MPH
rain 1hr
in
rain 24hr
in
rain mn
in
humidity
%
barometer
mb
20260504220305 81 224 3.0 10.0 0.00 0.00 0.00 49 1000.3
20260504215805 81 243 6.0 7.0 0.00 0.00 0.00 48 1000.7
20260504214806 81 228 3.0 7.0 0.00 0.00 0.00 49 1000.7
20260504214306 81 258 7.0 9.0 0.00 0.00 0.00 47 1000.7
20260504213805 81 244 7.0 8.0 0.00 0.00 0.00 47 1000.7
20260504213305 81 246 5.0 8.0 0.00 0.00 0.00 48 1000.7
20260504212805 81 316 3.0 6.0 0.00 0.00 0.00 49 1000.7
20260504212306 81 247 5.0 7.0 0.00 0.00 0.00 48 1000.7
20260504211805 81 293 6.0 8.0 0.00 0.00 0.00 48 1001.0
20260504211305 81 244 5.0 8.0 0.00 0.00 0.00 48 1001.0
20260504210806 81 245 4.0 6.0 0.00 0.00 0.00 48 1000.7
20260504210305 81 258 4.0 7.0 0.00 0.00 0.00 48 1000.7
20260504205305 80 292 5.0 8.0 0.00 0.00 0.00 49 1000.7
20260504204805 80 241 4.0 10.0 0.00 0.00 0.00 51 1000.7
20260504204306 80 227 5.0 9.0 0.00 0.00 0.00 51 1001.0
20260504203305 79 252 5.0 7.0 0.00 0.00 0.00 53 1001.4
20260504202805 79 269 4.0 8.0 0.00 0.00 0.00 53 1001.4
20260504202306 79 228 6.0 7.0 0.00 0.00 0.00 54 1001.4
20260504201305 78 249 4.0 9.0 0.00 0.00 0.00 54 1001.4
20260504200806 78 307 5.0 5.0 0.00 0.00 0.00 54 1001.7
20260504200305 78 113 2.0 6.0 0.00 0.00 0.00 56 1001.7
20260504195806 78 259 5.0 7.0 0.00 0.00 0.00 56 1001.7
20260504195305 77 289 5.0 6.0 0.00 0.00 0.00 57 1001.7
20260504194805 76 295 3.0 8.0 0.00 0.00 0.00 58 1002.4
20260504194306 75 237 6.0 8.0 0.00 0.00 0.00 57 1002.0
20260504193805 74 258 3.0 3.0 0.00 0.00 0.00 60 1001.7
20260504193305 74 237 3.0 5.0 0.00 0.00 0.00 62 1002.4
20260504192806 73 262 2.0 5.0 0.00 0.00 0.00 63 1002.4
20260504192305 73 313 2.0 5.0 0.00 0.00 0.00 63 1002.4
20260504191806 73 241 3.0 3.0 0.00 0.00 0.00 63 1002.4
20260504191305 73 254 2.0 3.0 0.00 0.00 0.00 64 1002.4
20260504190306 70 231 3.0 6.0 0.00 0.00 0.00 66 1002.4
20260504185805 69 241 3.0 5.0 0.00 0.00 0.00 67 1002.4
20260504185306 68 220 4.0 6.0 0.00 0.00 0.00 69 1002.0
20260504184805 67 168 4.0 6.0 0.00 0.00 0.00 69 1002.0
20260504184305 67 186 4.0 7.0 0.00 0.00 0.00 71 1002.0
20260504183805 67 195 3.0 6.0 0.00 0.00 0.00 70 1002.4
20260504183305 67 247 3.0 6.0 0.00 0.00 0.00 69 1003.0
20260504182305 68 181 5.0 6.0 0.00 0.00 0.00 64 1003.0
20260504181805 68 201 2.0 3.0 0.00 0.00 0.00 64 1003.7
20260504181305 68 178 2.0 5.0 0.00 0.00 0.00 64 1003.7
20260504180805 69 204 3.0 5.0 0.00 0.00 0.00 63 1003.7
20260504180305 69 250 3.0 5.0 0.00 0.00 0.00 63 1003.0
20260504175805 69 240 4.0 5.0 0.00 0.00 0.00 64 1003.4
20260504175305 69 233 3.0 6.0 0.00 0.00 0.00 64 1003.4
20260504174806 69 249 3.0 6.0 0.00 0.00 0.00 63 1003.4
20260504174305 69 244 2.0 2.0 0.00 0.00 0.00 63 1003.7
20260504173805 69 263 5.0 5.0 0.00 0.00 0.00 62 1003.4
20260504173305 69 172 3.0 6.0 0.00 0.00 0.00 62 1003.4
20260504172805 69 233 5.0 6.0 0.00 0.00 0.00 63 1003.7
20260504172305 69 232 2.0 3.0 0.00 0.00 0.00 63 1003.7
20260504171806 69 234 2.0 3.0 0.00 0.00 0.00 63 1004.1
20260504171305 68 206 3.0 3.0 0.00 0.00 0.00 65 1003.7
20260504170805 67 212 2.0 3.0 0.00 0.00 0.00 66 1004.1
20260504170305 67 252 3.0 5.0 0.00 0.00 0.00 67 1004.1
20260504160305 65 276 4.0 7.0 0.00 0.00 0.00 68 1004.7
20260504150805 65 225 5.0 7.0 0.00 0.00 0.00 66 1005.1
20260504141305 66 254 3.0 6.0 0.00 0.00 0.00 63 1005.8
20260504140805 66 226 3.0 5.0 0.00 0.00 0.00 63 1005.8
20260504140304 66 247 2.0 5.0 0.00 0.00 0.00 62 1005.8
20260504130305 65 226 3.0 5.0 0.00 0.00 0.00 65 1006.1
20260504120305 61 238 2.0 2.0 0.00 0.00 0.00 71 1007.1
20260504100304 62 238 2.0 2.0 0.00 0.00 0.00 67 1006.8
20260504081804 62 268 1.0 2.0 0.00 0.00 0.00 67 1006.8
20260504081304 62 268 2.0 2.0 0.00 0.00 0.00 65 1006.8
20260504080804 61 268 2.0 2.0 0.00 0.00 0.00 67 1006.8
20260504080304 61 268 2.0 2.0 0.00 0.00 0.00 70 1007.1
20260504070304 62 357 2.0 2.0 0.00 0.00 0.00 67 1006.8
20260504045804 66 258 2.0 2.0 0.00 0.00 0.00 61 1006.4
20260504045304 66 249 2.0 2.0 0.00 0.00 0.00 59 1006.8
20260504044804 66 246 2.0 2.0 0.00 0.00 0.00 60 1006.8
20260504044304 66 245 2.0 2.0 0.00 0.00 0.00 61 1006.8
20260504043304 65 240 2.0 2.0 0.00 0.00 0.00 63 1006.8
20260504042804 66 240 2.0 2.0 0.00 0.00 0.00 62 1006.8
20260504042305 65 246 2.0 3.0 0.00 0.00 0.00 63 1007.1
20260504041304 66 348 1.0 2.0 0.00 0.00 0.00 61 1007.5
20260504040804 66 326 2.0 2.0 0.00 0.00 0.00 61 1007.5
20260504040304 67 288 2.0 2.0 0.00 0.00 0.00 62 1007.5
20260504035305 69 246 2.0 3.0 0.00 0.00 0.00 55 1007.5
20260504034804 69 290 1.0 2.0 0.00 0.00 0.00 56 1007.5
20260504034304 69 270 2.0 3.0 0.00 0.00 0.00 55 1007.5
20260504033804 70 228 3.0 5.0 0.00 0.00 0.00 54 1007.1
20260504033304 70 242 3.0 6.0 0.00 0.00 0.00 54 1007.1
20260504032804 70 218 4.0 7.0 0.00 0.00 0.00 54 1007.5
20260504032304 70 257 5.0 7.0 0.00 0.00 0.00 54 1007.5
20260504031803 70 238 5.0 6.0 0.00 0.00 0.00 54 1007.8
20260504031304 70 218 3.0 5.0 0.00 0.00 0.00 54 1007.5
20260504030803 70 229 2.0 3.0 0.00 0.00 0.00 54 1007.5
20260504030304 70 228 2.0 2.0 0.00 0.00 0.00 53 1007.8
20260504025804 71 275 3.0 5.0 0.00 0.00 0.00 52 1007.5
20260504025304 71 238 3.0 5.0 0.00 0.00 0.00 51 1007.5
20260504024304 72 238 2.0 2.0 0.00 0.00 0.00 49 1007.5
20260504023804 72 280 3.0 3.0 0.00 0.00 0.00 48 1007.5
20260504023304 72 234 2.0 2.0 0.00 0.00 0.00 50 1007.5
20260504022804 72 229 1.0 1.0 0.00 0.00 0.00 50 1007.5
20260504022305 72 229 1.0 2.0 0.00 0.00 0.00 49 1007.5
20260504021803 72 229 2.0 2.0 0.00 0.00 0.00 49 1007.1
20260504021304 72 229 1.0 2.0 0.00 0.00 0.00 50 1007.5
20260504020804 72 234 2.0 2.0 0.00 0.00 0.00 49 1007.5
20260504015304 72 228 2.0 2.0 0.00 0.00 0.00 50 1007.1
20260504014804 72 228 1.0 1.0 0.00 0.00 0.00 50 1007.5
20260504014303 73 228 0.0 0.0 0.00 0.00 0.00 49 1007.5
20260504013304 72 228 0.0 1.0 0.00 0.00 0.00 49 1007.1
20260504012804 72 228 0.0 1.0 0.00 0.00 0.00 50 1007.1
20260504012304 73 223 0.0 1.0 0.00 0.00 0.00 50 1007.1
20260504011804 73 224 1.0 2.0 0.00 0.00 0.00 49 1007.1
20260504011303 72 294 1.0 2.0 0.00 0.00 0.00 49 1007.1
20260504010304 73 252 1.0 2.0 0.00 0.00 0.00 48 1007.1
20260504005803 75 252 2.0 2.0 0.00 0.00 0.00 45 1006.8
20260504005304 75 234 2.0 3.0 0.00 0.00 0.00 44 1006.8
20260504004803 75 254 2.0 3.0 0.00 0.00 0.00 43 1006.8
20260504004303 75 241 2.0 2.0 0.00 0.00 0.00 43 1006.8
20260504003804 75 258 2.0 2.0 0.00 0.00 0.00 43 1006.8
20260504003304 76 240 2.0 2.0 0.00 0.00 0.00 43 1006.8
20260504002806 76 246 2.0 2.0 0.00 0.00 0.00 42 1006.8
20260504002306 76 257 2.0 2.0 0.00 0.00 0.00 42 1006.4
20260504001806 76 240 1.0 2.0 0.00 0.00 0.00 43 1006.8
20260504001306 76 285 1.0 3.0 0.00 0.00 0.00 42 1006.4
20260504000805 76 192 2.0 2.0 0.00 0.00 0.00 42 1006.8
20260504000306 76 186 2.0 2.0 0.00 0.00 0.00 41 1006.8
20260503235805 76 138 1.0 2.0 0.00 0.00 0.00 41 1006.8
20260503235305 76 138 1.0 2.0 0.00 0.00 0.00 41 1006.8
20260503234806 77 144 1.0 2.0 0.00 0.00 0.00 41 1006.8
20260503234306 77 333 2.0 3.0 0.00 0.00 0.00 40 1006.8
20260503233806 77 276 2.0 5.0 0.00 0.00 0.00 39 1006.8
20260503233306 77 267 2.0 2.0 0.00 0.00 0.00 40 1006.8
20260503232806 77 354 2.0 5.0 0.00 0.00 0.00 40 1006.8
20260503232306 77 346 2.0 3.0 0.00 0.00 0.00 40 1006.8
20260503230806 78 16 3.0 3.0 0.00 0.00 0.00 38 1007.1
20260503230306 78 223 2.0 3.0 0.00 0.00 0.00 38 1007.1
20260503225306 77 143 2.0 3.0 0.00 0.00 0.00 39 1007.1
20260503224306 78 348 2.0 3.0 0.00 0.00 0.00 38 1007.1
20260503223805 78 348 5.0 10.0 0.00 0.00 0.00 36 1007.1
20260503223306 78 300 3.0 9.0 0.00 0.00 0.00 37 1007.1
20260503222806 78 250 5.0 7.0 0.00 0.00 0.00 37 1007.1
20260503222306 78 15 2.0 3.0 0.00 0.00 0.00 37 1007.1
20260503221805 78 353 4.0 6.0 0.00 0.00 0.00 36 1007.5
20260503221306 78 302 6.0 7.0 0.00 0.00 0.00 36 1007.5